COSMOS 789 DEB

Satellite information

Favourite Embed

Satellite Type and Status

DEBRISIN ORBIT

Key statistics

Satellite COSMOS 789 DEB at a glance.

Uptime

18130

Days in orbit

Revolutions

≈ 13.8

Per day

Orbit

LEO

Low Earth Orbit

Inclination

83.0

Latest

Satellite identification and parameters

Extended collection of information and parameters for COSMOS 789 DEB.

Object identification

Identified? True

Debris? True

Object name: COSMOS 789 DEB

International designator: 1976-005C

Object number (NORAD): 36299

Object ID (CCSDS): 36299

Country: COMMONWEALTH OF INDEPENDENT STATES (CIS)

Current information (Y/N): Y

RCS size: SMALL

Orbital parameters

Period: 104.369 minutes

Inclination: 82.9719 deg

SMA: 7343.029 km

Apoapsis: 986.237 km

Periapsis: 943.55 km

RAAN: 35.084 deg

Eccentricy: 0.00290661

Argument of periapsis: 213.3456 deg

Mean anomaly: 168.837 deg

Mean motion: 13.79716722 rev/day

Mean motion (dot): 0.00001332 rev/day2

B* drag term: 0.0012711203 1/REarth

Two-line elements (TLE)

Creation date: Sept. 5, 2025, 4:46 a.m.

Reference frame: TEME

Reference center: EARTH

Epoch: Sept. 4, 2025, 4:24 p.m. UTC

TLE line 0: 0 COSMOS 789 DEB

TLE line 1: 1 36299U 76005C 25247.68358035 .00001332 00000-0 12711-2 0 9998

TLE line 2: 2 36299 82.9719 35.0840 0029066 213.3456 168.8370 13.79716722812542

Live tracking on map

Real-time ground track for satellite COSMOS 789 DEB.

In-orbit conjunctions

A list of the most updated potential collisions computed for object COSMOS 789 DEB.

Target Orbit TCA Probability of collision Miss distance Type
COSMOS 1275 DEB LEO 2025-09-04 06:16:12 0.0004926413 119.0 (m) DEBRIS
COSMOS 886 DEB * LEO 2024-07-02 12:51:16 0.0001072485 105.0 (m) DEBRIS

Associated space launch

Navigation satellite providing location information for the Tsiklon-B navigation system

COSMOS 789 DEB was lifted into orbit during the mission ‘Kosmos-3M | Parus 5’, on board a Kosmos-3M space rocket.

The launch took place on Jan. 20, 1976, 5:07 p.m. from 132/1 (132L).

For more information about the launch, click the button.

Launch to space Kosmos-3M | Parus 5
Kosmos-3M | Parus 5

Agency: N/A

Status: Launch Successful

Launch date: Jan. 20, 1976, 5:07 p.m. UTC

Rocket: Kosmos-3M

Launch pad: 132/1 (132L)

Location: Plesetsk Cosmodrome, Russian Federation

...

Latest news about this satellite

There are no fresh news available about this satellite. Check back as we update our databases every day.


Newsletter sign-up

Weekly statistics, charts and insights to help you stay on top of the space industry.